Location: ???????
(56.0409°N, 39.5349°E)
Time: 11:15:28
(UTC+00:00)

Daily predictions for brighter satellites

Satellite Brightness Start Highest point End
(mag) Time Altitude Azimuth Time Altitude Azimuth Time Altitude Azimuth
Cosmos 1544 Rocket 3.9 18:10:38 10° SSE 18:14:47 46° E 18:18:55 10° NNE
Cosmos 1980 Rocket 4.1 18:11:04 10° NW 18:15:35 25° WSW 18:20:04 10° SSW
NOSS 3 (A) 3.9 18:15:18 10° WNW 18:17:22 67° SW 18:19:57 10° SE
COSMOS 2406 3.6 18:13:00 10° S 18:18:25 45° ESE 18:23:52 10° NE
BREEZE-M DEB (TANK) 3.1 18:16:39 10° SW 18:18:53 18° S 18:20:28 10° SE
Cosmos 724 4.4 18:14:41 10° SW 18:20:42 90° NW 18:26:38 10° NE
Nadezhda 4 Rocket 4.4 18:14:48 10° N 18:20:45 49° ENE 18:26:40 10° SE
Meteor 1-20 Rocket 4.3 18:15:25 10° NNW 18:21:02 87° ENE 18:26:43 10° SSE
Ariane Rocket 3.1 18:18:40 10° SSE 18:23:41 68° ENE 18:28:45 10° NNW
Okean-O 3.2 18:19:35 10° S 18:23:54 57° WSW 18:28:14 10° NNW
DNEPR-1 R/B 4.4 18:19:30 10° NW 18:24:43 73° SW 18:31:07 10° SE
SPOT 3 Rocket 3.6 18:21:32 10° SSE 18:26:42 86° ENE 18:31:52 10° NNW
CZ-2C R/B 2.6 18:24:09 10° SE 18:26:47 40° ENE 18:29:26 10° N
CZ-4 R/B 3.9 18:24:55 10° SW 18:27:03 15° W 18:29:13 10° NW
Cosmos 1782 3.5 18:24:30 10° SSW 18:27:55 48° WNW 18:31:23 10° N
Cosmos 1758 Rocket 3.8 18:23:39 10° NNW 18:28:03 75° W 18:32:27 10° S
Cosmos 2333 Rocket 2.4 18:22:28 10° NW 18:28:09 72° WSW 18:33:50 10° SSE
Spot 2 Rocket 4.2 18:24:21 10° S 18:29:14 52° W 18:34:12 10° NNW
Cosmos 1933 3.5 18:28:25 10° S 18:32:05 49° E 18:35:48 10° NNE
Cosmos 1825 Rocket 3.9 18:37:00 10° N 18:41:16 52° ENE 18:45:21 11° SSE
Cosmos 990 Rocket 4.3 18:36:55 10° NNW 18:42:02 58° NE 18:47:01 11° SE
Cosmos 2360 Rocket 2.3 18:36:40 10° NW 18:42:23 88° WSW 18:47:55 11° SSE
Cosmos 44 3.8 18:39:21 10° NW 18:44:46 67° NE 18:50:05 10° ESE
CZ-4C R/B 2.7 18:42:17 10° WSW 18:46:57 61° NNW 18:53:08 10° NE
Cosmos 1536 4.4 18:44:16 10° NNE 18:47:09 21° ENE 18:50:02 10° ESE
Cosmos 1953 Rocket 4.4 18:43:04 10° N 18:47:10 38° ENE 18:50:54 12° SE
Cosmos 2333 4.3 18:44:01 10° NW 18:49:47 90° SW 18:55:12 12° SSE
Helios 1B rocket 3.8 18:47:38 10° ESE 18:50:18 21° ENE 18:53:01 10° N
CZ-4B R/B 3.5 18:46:06 10° SSE 18:50:52 74° WSW 18:55:45 10° NNW
Okean 1 4.1 18:48:21 12° SSE 18:51:04 28° E 18:54:12 10° NNE
Cosmos 1602 Rocket 3.7 18:47:58 10° NNW 18:52:17 73° W 18:56:36 10° S
Cosmos 1992 Rocket 4.1 18:47:46 10° SSW 18:53:00 83° WNW 18:58:15 10° NNE
Cosmos 1461 2.8 18:51:11 10° SSW 18:54:44 46° SE 18:58:17 10° NE
Meteor 1-25 Rocket 4.5 18:49:52 10° NNW 18:55:33 72° W 19:01:06 10° S
Cosmos 2219 Rocket 2.3 18:50:11 10° NW 18:55:53 80° NE 19:01:07 12° SE
Cosmos 1777 Rocket 4.1 18:50:54 10° NNW 18:56:10 75° WSW 19:01:01 12° SSE
Cosmos 1707 4.2 18:56:53 11° ESE 18:58:01 13° E 18:59:25 10° ENE
NOSS 3-3 (A) 3.8 18:58:30 10° SW 19:03:56 86° SE 19:10:38 10° NE
Cosmos 1503 Rocket 4.0 18:59:22 10° NNW 19:04:35 80° WSW 19:09:08 13° SSE
Cosmos 909 Rocket 4.1 18:58:19 10° SW 19:04:35 88° SE 19:11:23 10° NE
ISS -3.2 19:02:25 10° WSW 19:05:34 38° S 19:08:28 12° ESE
Cosmos 220 Rocket 3.9 19:01:44 10° SSW 19:05:44 61° ESE 19:09:48 10° NNE
Cosmos 1437 Rocket 2.8 19:04:18 10° SSW 19:07:51 69° WNW 19:11:29 10° N
Helios 1A 4.2 19:05:36 10° NE 19:08:48 24° E 19:11:05 15° SE
USA 290 3.1 19:07:21 15° SSE 19:09:23 30° ESE 19:12:11 10° NE
Cosmos 1076 Rocket 3.5 19:07:08 10° N 19:11:24 73° ENE 19:14:52 15° SSE
Cosmos 2098 Rocket 3.0 19:08:13 10° S 19:12:55 77° E 19:16:57 10° NNE
Cosmos 2322 Rocket 2.7 19:08:31 10° NW 19:14:02 55° WSW 19:18:59 13° S
Terra 4.4 19:12:39 10° WSW 19:15:05 14° W 19:17:32 10° NW
Cosmos 1464 Rocket 4.0 19:09:42 10° S 19:15:49 74° E 19:22:02 10° NNE
Cosmos 1607 4.5 19:10:30 10° WSW 19:16:40 66° NW 19:22:59 10° NE
Cosmos 2151 4.4 19:13:45 10° NNW 19:17:25 31° W 19:21:03 10° SSW
RESURS DK-1 3.2 19:14:45 10° NNW 19:18:34 42° NE 19:22:10 11° ESE
Cosmos 1354 Rocket 4.0 19:13:34 10° NNW 19:18:51 86° WSW 19:23:09 15° SSE
ARIANE 5 R/B 4.0 19:17:33 11° ESE 19:21:15 29° ENE 19:25:07 10° N
Cosmos 2082 Rocket 3.2 19:16:14 10° WSW 19:21:48 50° NW 19:27:22 10° NNE
ALOS 2 4.2 19:19:15 10° ESE 19:22:53 26° ENE 19:26:32 10° N
Cosmos 372 Rocket 4.3 19:18:55 10° NNW 19:24:00 59° NE 19:28:14 14° SE
Cosmos 1606 Rocket 3.5 19:26:21 11° S 19:30:29 86° E 19:34:49 10° NNE
Cosmos 1092 Rocket 4.1 19:24:37 10° N 19:30:48 72° ENE 19:35:51 16° SSE
Cosmos 2237 Rocket 3.4 19:27:01 10° NNW 19:32:19 37° NE 19:37:34 10° ESE
NOSS 3-3 (C) 4.1 19:30:18 10° WSW 19:35:52 80° NW 19:42:44 10° NE
Aureole 1 Rocket 3.9 19:31:40 10° NNW 19:37:11 89° ENE 19:42:31 17° SSE
Cosmos 540 Rocket 3.7 19:33:39 13° S 19:37:58 50° ESE 19:42:56 10° NE
Cosmos 1766 2.7 19:35:10 10° N 19:38:25 75° ENE 19:40:18 23° SSE
Cosmos 1726 Rocket 3.3 19:35:41 15° S 19:38:59 78° E 19:43:03 10° NNE
Meteor 1-26 Rocket 4.4 19:35:05 16° S 19:39:29 55° E 19:45:05 10° NNE
Okean O Rocket 4.1 19:37:48 10° WSW 19:39:59 14° W 19:42:12 10° NW
Cosmos 1271 Rocket 4.2 19:39:32 16° ESE 19:40:48 19° E 19:43:17 10° NE
CZ-2C R/B 4.4 19:37:22 10° E 19:41:19 22° NE 19:45:15 10° N
USA 306 1.8 19:39:25 10° W 19:41:08 30° SW 19:41:08 30° SW
NOSS 0 Rocket 4.3 19:35:40 10° NW 19:41:50 62° NE 19:47:32 12° SE
COSMOS 2428 2.9 19:37:45 10° NNW 19:43:29 69° NE 19:48:16 15° SE
Cosmos 1842 4.3 19:42:25 18° ESE 19:43:35 22° E 19:46:07 10° NE
SL-16 R/B 3.9 19:39:38 10° NW 19:43:58 23° WSW 19:48:17 10° SSW
Cosmos 1937 Rocket 4.0 19:40:03 10° NNW 19:45:05 51° NE 19:49:21 14° SE
Geosat 4.3 19:46:21 10° NE 19:51:12 48° ESE 19:55:05 15° S
Cosmos 2034 Rocket 4.1 19:48:12 12° S 19:54:13 90° E 20:00:35 10° NNE
IKONOS-2 4.5 19:50:24 10° NNE 19:54:32 66° ESE 19:57:23 19° S
USA 234 4.5 19:53:24 10° E 19:57:54 19° SE 19:59:52 17° SSE
ATLAS 2AS CENTAUR R/B 3.9 19:51:51 10° WNW 19:58:24 45° N 20:04:53 10° ENE
Cosmos-2242 2.9 19:57:48 20° S 20:00:37 75° E 20:04:45 10° NNE
COSMOS 2406 4.2 19:57:09 10° WSW 20:02:44 50° NW 20:08:20 10° NNE
TSX-5 3.5 20:07:00 10° NW 20:10:02 52° SW 20:11:27 28° S
Cosmos 2333 Rocket 4.3 20:08:01 10° WNW 20:11:30 17° W 20:15:00 10° SW
BREEZE-M R/B 4.4 20:04:42 10° W 20:12:21 51° SSW 20:17:53 10° ESE
Meteor 1-14 Rocket 4.2 20:07:21 10° NNW 20:12:56 77° ENE 20:16:48 21° SSE
Cosmos 2279 Rocket 4.2 20:08:45 19° SSE 20:13:11 58° E 20:19:20 10° NNE
SL-08 ROCKET BODY 4.5 20:08:00 10° N 20:14:12 86° E 20:18:40 20° SSE
SeaSat 1 3.9 20:11:03 10° ESE 20:15:26 34° NE 20:19:50 10° NNW
Cosmos 1634 Rocket 4.0 20:13:07 18° S 20:17:56 81° E 20:24:11 10° NNE
Cosmos 1898 Rocket 3.5 20:13:14 10° NNW 20:18:26 80° WSW 20:21:54 22° SSE
Cosmos 1763 Rocket 3.6 20:13:36 10° SSW 20:18:54 81° WNW 20:24:12 10° NNE
Cosmos 1833 4.2 20:16:40 10° SSW 20:22:21 90° WNW 20:28:01 10° NE
Cosmos 2297 Rocket 3.6 20:19:59 16° SE 20:22:31 22° ESE 20:26:42 10° NE
Cosmos 1536 3.3 20:19:04 10° NNW 20:22:37 47° W 20:24:41 22° SSW
Helios 1B rocket 2.6 20:21:14 24° SSW 20:23:03 48° W 20:26:28 10° NNW
Cosmos 1470 2.2 20:20:12 10° NNW 20:23:31 84° W 20:25:01 30° S
CZ-2C R/B 3.9 20:19:15 10° NNE 20:23:39 54° E 20:26:13 24° S
Cosmos 2221 3.0 20:22:50 24° SSE 20:24:57 45° E 20:28:59 10° NNE
Cosmos 2360 Rocket 3.9 20:21:30 10° NW 20:25:39 21° WSW 20:29:39 10° SSW
Cosmos 44 4.3 20:20:46 10° NW 20:25:44 38° WSW 20:28:40 21° S
Cosmos 2322 3.9 20:22:32 10° NW 20:28:11 64° WSW 20:31:53 22° SSE
Cosmos 1707 2.8 20:28:22 21° SW 20:29:53 43° WNW 20:32:38 10° N
Meteor 2-6 Rocket 4.4 20:26:06 19° S 20:30:25 76° E 20:36:23 10° NNE
Cosmos 1461 4.0 20:27:36 10° W 20:31:06 39° NNW 20:34:34 10° NE
CZ-4C R/B 3.7 20:31:01 10° WNW 20:36:07 42° N 20:42:43 10° ENE
Cosmos 2266 Rocket 4.0 20:32:00 10° N 20:38:03 73° ENE 20:42:17 21° SSE
GP-B 3.7 20:35:03 10° N 20:39:17 46° E 20:41:42 23° SSE
Cosmos 2219 Rocket 3.6 20:34:45 10° NW 20:39:17 25° WSW 20:42:48 14° SSW
Cosmos 2058 Rocket 3.5 20:37:19 17° SSW 20:40:31 58° WNW 20:44:50 10° N
ISS -2.4 20:39:08 10° WSW 20:41:23 23° SW 20:41:23 23° SW
USA 290 4.2 20:40:44 10° WSW 20:43:29 27° NW 20:46:16 10° NNE
Helios 1A 3.6 20:39:55 10° N 20:43:43 47° WNW 20:46:47 15° SW
SAR-Lupe-2 3.3 20:46:49 33° S 20:48:13 82° WSW 20:51:34 10° NNW
Cosmos 1975 2.8 20:45:49 10° NNW 20:49:28 59° W 20:51:09 28° SSW
Cosmos 841 Rocket 3.7 20:48:19 23° S 20:51:28 59° ESE 20:56:38 10° NNE
Meteor 1-19 Rocket 4.4 20:49:52 22° S 20:53:42 72° E 20:59:40 10° NNE
KORONAS-FOTON 4.4 20:51:50 20° SW 20:53:52 43° WNW 20:57:08 10° N
RESURS DK-1 3.2 20:52:15 10° NW 20:55:52 34° WSW 20:57:22 25° SSW
Cosmos 2322 Rocket 4.4 20:54:50 10° WNW 20:56:51 12° W 20:58:52 10° WSW
ARIANE 5 R/B 3.1 20:54:55 24° SSW 20:57:22 50° W 21:01:44 10° NNW
ALOS 2 2.9 20:56:35 25° S 20:58:58 56° WSW 21:03:19 10° NNW
SL-16 R/B 3.2 20:59:11 10° NNW 21:04:41 47° NE 21:10:10 10° ESE
Cosmos 1655 Rocket 4.3 20:59:39 10° N 21:05:51 63° ENE 21:10:33 18° SSE
Cosmos 2084 4.0 21:06:37 10° NW 21:10:43 56° NNE 21:14:47 10° ESE
Cosmos 1271 Rocket 3.3 21:12:52 21° SW 21:14:46 42° WNW 21:18:01 10° N
Cosmos 1766 Rocket 3.5 21:11:35 10° N 21:15:54 77° ENE 21:18:20 25° SSE
PSLV R/B 3.5 21:11:46 10° NNE 21:16:04 88° W 21:18:34 25° SSW
Cosmos 2237 Rocket 2.2 21:11:07 10° NW 21:16:47 68° WSW 21:20:30 22° SSE
Cosmos 1842 4.2 21:15:02 18° WSW 21:16:48 30° WNW 21:19:39 10° N
Lacrosse 4 Rocket 2.7 21:16:34 21° SE 21:17:41 23° ESE 21:20:56 10° ENE
Cosmos 1980 3.8 21:15:19 10° NW 21:20:54 60° WSW 21:24:26 23° S
CZ-2C R/B 2.6 21:17:31 22° SSE 21:20:59 89° WSW 21:26:13 10° NNW
ARGOS Delta rocket 4.2 21:18:20 10° N 21:23:25 69° WNW 21:27:06 20° SSW
Cosmos 1937 Rocket 4.4 21:22:11 10° NW 21:26:49 35° WSW 21:29:23 21° SSW
COSMOS 2428 3.8 21:22:26 10° NW 21:27:20 30° WSW 21:30:13 20° SSW
Iridium 4 Rocket 4.3 21:25:13 19° SSE 21:29:11 51° E 21:34:49 10° NNE
Meteor 1-11 Rocket 4.2 21:24:24 10° NNW 21:29:53 50° W 21:33:18 22° SSW
Cosmos 2227 Rocket 3.3 21:29:18 18° SSE 21:32:22 30° ESE 21:37:14 10° NE
Meteor 2-4 Rocket 3.9 21:29:47 23° S 21:33:10 61° E 21:38:40 10° NNE
Meteor 1-10 Rocket 4.5 21:34:57 20° SSW 21:39:09 72° WNW 21:45:07 10° NNE
USA 234 3.5 21:35:43 10° ENE 21:42:04 50° SE 21:47:11 16° SW
Cosmos 2263 Rocket 3.7 21:39:15 15° SSE 21:42:27 24° ESE 21:46:49 10° NE
MetOp-A 4.4 21:40:33 23° SSW 21:43:11 45° W 21:47:40 10° NNW
Cosmos 1943 4.4 21:43:53 10° NNW 21:49:15 43° NE 21:54:36 10° ESE
ACS3 Solar Sail 2.4 21:43:48 10° NNE 21:49:33 46° E 21:53:51 18° SSE
ATLAS 2AS CENTAUR R/B 3.1 21:43:30 10° NW 21:50:17 65° NNE 21:57:02 10° ESE
CZ-2C R/B 3.4 21:45:01 10° NNE 21:50:45 82° WNW 21:54:49 21° SSW
Cosmos 1812 Rocket 4.4 21:48:19 18° SW 21:51:12 43° WNW 21:55:28 10° N
SeaSat 1 2.4 21:49:02 19° SSE 21:52:33 70° WSW 21:57:29 10° NW
Cosmos 1238 Rocket 2.9 21:50:42 27° SSW 21:52:51 82° WNW 21:57:20 10° N
Meteor 1-27 Rocket 3.8 21:50:12 21° SSW 21:54:11 79° WNW 21:59:56 10° NNE
Cosmos 1500 Rocket 4.3 21:52:00 10° N 21:56:21 50° ENE 21:59:56 14° SE
Meteor 2-20 Rocket 4.3 21:53:25 22° SSW 21:57:17 84° WNW 22:03:02 10° NNE
Cosmos 1758 3.3 21:55:13 10° N 21:58:49 64° ENE 22:01:00 22° SSE
Alouette 2 Rocket 3.9 21:57:24 10° NNW 22:00:58 47° WSW 22:03:14 24° SSW
Cosmos 2221 4.0 21:59:07 13° WSW 22:02:10 27° WNW 22:05:47 10° N
Cosmos 1125 Rocket 3.6 22:00:18 10° NNW 22:05:38 81° ENE 22:10:40 11° SSE
Cosmos 2297 Rocket 2.2 22:01:44 19° SSW 22:05:51 90° SE 22:11:33 10° NE
BlueWalker 3 3.0 22:07:41 23° SSE 22:07:54 24° SSE 22:10:48 10° E
Okean 3 Rocket 3.6 22:04:38 10° NNW 22:09:11 84° W 22:12:07 22° S
Meteor 2-10 Rocket 3.9 22:06:50 10° NNW 22:12:15 61° W 22:16:03 21° S
Landsat 5 3.3 22:09:26 10° NNE 22:13:34 85° WNW 22:15:53 25° SSW
Cosmos 1340 Rocket 3.0 22:12:03 10° N 22:15:52 66° ENE 22:18:41 17° SSE
Cosmos 1842 Rocket 3.5 22:16:33 24° SSW 22:19:12 81° WNW 22:23:40 10° N
Sich 1 3.0 22:15:51 10° NNW 22:19:58 62° W 22:22:24 23° S
Cosmos 1553 Rocket 4.2 22:16:07 18° S 22:20:57 72° E 22:27:22 10° NNE
SL-14 R/B 3.2 22:21:32 24° S 22:23:42 74° E 22:27:30 10° NNE
Cosmos 1814 Rocket 4.0 22:20:29 21° SSW 22:23:59 78° ESE 22:29:15 10° NNE
Cosmos 1805 Rocket 3.5 22:20:46 10° NNW 22:25:08 90° ENE 22:28:13 19° S
CZ-4C R/B 3.3 22:19:27 10° NW 22:25:22 58° NNE 22:33:03 10° ESE
DELTA 2 DEB (DPAF) 3.5 22:24:47 10° NNE 22:28:22 86° ESE 22:30:21 25° SSW
BREEZE-M DEB (TANK) 4.0 22:17:54 10° SW 22:28:34 36° S 22:32:32 10° ESE
Cosmos 1743 Rocket 3.8 22:25:45 10° N 22:30:04 66° ENE 22:33:48 13° SSE
Cosmos 1066 Rocket 4.2 22:27:10 20° SSW 22:31:00 74° WNW 22:36:35 10° NNE
Cosmos 1953 3.3 22:32:29 10° N 22:35:57 39° ENE 22:39:23 10° SE
CENTAUR R/B 4.4 22:33:35 10° SE 22:36:51 15° ESE 22:40:30 10° ENE
IDEFIX/ARIANE 42P 3.6 22:32:56 10° NNE 22:37:48 37° E 22:42:24 11° SSE
CZ-4C R/B 3.2 22:36:40 10° N 22:40:00 58° WNW 22:41:59 22° SW
Cosmos 1745 Rocket 4.0 22:41:19 10° NNW 22:47:30 88° W 22:53:22 11° S
Meteor 1-18 Rocket 4.3 22:44:04 18° SSW 22:48:16 71° WNW 22:53:59 10° NNE
SL-16 R/B 2.5 22:43:25 10° NW 22:48:54 50° WSW 22:53:44 13° S
Cosmos 1408 Rocket 3.7 22:44:45 10° NNW 22:48:57 55° W 22:51:52 19° SSW
Cosmos 158 Rocket 4.2 22:44:55 17° SW 22:49:06 69° WNW 22:54:26 10° NNE
Cosmos 2084 3.8 22:45:22 10° WNW 22:49:14 39° SW 22:52:44 12° SSE
Lacrosse 4 Rocket 1.6 22:51:57 16° SW 22:55:06 65° NW 22:59:13 10° NE
Cosmos 2219 3.9 22:51:04 15° S 22:55:28 43° ESE 23:00:46 10° NE
SL-19 R/B 3.9 22:53:53 22° S 22:55:41 54° WSW 22:58:54 10° NNW
Cosmos 2237 Rocket 4.0 22:56:37 10° WNW 22:59:49 15° W 23:02:17 12° SW
CZ-2C R/B 4.3 22:58:57 12° SW 23:01:57 19° W 23:05:33 10° NW
BREEZE-M DEB (TANK) 2.9 23:00:20 10° W 23:06:10 50° S 23:08:35 10° ESE
In-Cosmos 22 4.4 23:05:14 16° SSW 23:09:41 63° WNW 23:15:21 10° N
PSLV R/B 3.9 23:06:52 10° N 23:10:44 66° WNW 23:13:37 17° SSW
Cosmos 1703 2.9 23:10:39 16° S 23:13:01 66° E 23:16:12 10° NNE
ADEOS Rocket 3.9 23:07:38 10° NNE 23:15:21 62° E 23:22:33 10° S
Cosmos 1417 Rocket 4.5 23:10:22 14° S 23:15:48 88° W 23:22:02 10° NNE
Cosmos 2227 Rocket 2.4 23:11:04 14° SW 23:16:02 70° NW 23:21:44 10° NNE
Meteor 1-22 Rocket 4.3 23:10:24 10° NNW 23:16:14 72° W 23:21:48 10° S
USA 281 3.5 23:11:05 10° SE 23:17:37 74° NE 23:24:12 10° NNW
Cosmos 1900 4.2 23:13:03 10° NW 23:17:57 77° SW 23:22:48 10° SE
H-2A R/B 4.2 23:15:57 10° ESE 23:19:03 28° ENE 23:22:12 10° N
Cosmos 1867 3.5 23:13:48 10° NW 23:19:17 75° SW 23:24:43 10° SE
BREEZE-M DEB (TANK) 4.2 23:23:09 16° SSW 23:24:13 18° S 23:28:06 10° SE
USA 234 3.3 23:18:55 10° ENE 23:25:30 87° SSE 23:32:05 10° WSW
Cosmos 2263 Rocket 2.2 23:20:54 14° SW 23:25:46 83° NW 23:31:24 10° NE
USA 81 4.2 23:21:56 10° N 23:27:14 82° E 23:32:30 10° S
Cosmos 1151 Rocket 3.6 23:25:13 15° SW 23:28:36 45° WNW 23:32:47 10° N
SeaSat 1 4.2 23:28:37 12° SW 23:30:44 15° WSW 23:33:36 10° WNW
Cosmos 1633 Rocket 3.0 23:26:57 10° NNW 23:31:17 80° W 23:35:36 10° S
ACS3 Solar Sail 2.4 23:26:17 10° N 23:31:55 45° WNW 23:37:20 11° SW
MOZ.5/SAFIR/RUBIN 5/SL-8 3.8 23:27:32 10° SSE 23:32:08 84° ENE 23:36:44 10° NNW
Cosmos 1470 Rocket 3.7 23:28:30 10° N 23:32:52 76° ENE 23:37:15 10° SSE
ADEOS II 4.1 23:28:57 10° NE 23:33:08 23° E 23:37:16 10° SE
Cosmos 1943 3.3 23:27:59 10° NW 23:33:29 55° WSW 23:38:55 10° SSE
ATLAS 2AS CENTAUR R/B 2.8 23:34:36 10° NW 23:41:09 52° SW 23:47:41 10° SSE
Cosmos 2298 Rocket 4.2 23:39:21 10° NW 23:44:35 57° WSW 23:49:46 10° S
Cosmos 2285 Rocket 4.0 23:38:20 10° NNW 23:44:39 77° WSW 23:50:57 10° SSE
BlueWalker 3 2.0 23:41:23 10° WSW 23:44:50 50° S 23:48:17 10° E
Meteor 1-15 Rocket 4.4 23:39:24 10° NNW 23:45:15 63° W 23:51:04 10° S
Resurs 1-4 Rocket 3.3 23:40:21 10° NNE 23:45:17 39° E 23:50:11 10° SSE
S3M 4.1 23:40:11 11° SSW 23:46:08 67° WNW 23:52:16 10° N
MSX 3.9 23:40:27 10° NNE 23:46:15 79° WNW 23:52:01 10° SSW
Cosmos 1570 Rocket 4.1 23:42:50 11° SSW 23:47:51 89° WNW 23:53:14 10° NNE
Cosmos 1833 Rocket 4.1 23:44:36 10° NNW 23:49:58 43° NE 23:55:20 10° ESE
NOSS 2-2 (C) 3.5 23:47:29 12° SSW 23:50:08 37° SE 23:52:56 10° ENE
Cosmos 2297 Rocket 3.7 23:45:37 10° W 23:50:35 30° NNW 23:55:35 10° NNE
Meteor 1-16 Rocket 4.1 23:46:15 10° NNW 23:51:36 77° WSW 23:56:54 10° S
EXPRESS MD2 3.6 23:51:48 14° SW 23:52:53 18° S 23:54:47 10° SE
